ACA603 CYHZ-CYYZ

Flight info

Callsign ACA603
Flight time 2h 4m
Altitude 38000
Route KELNO Q806 TUKIR RAGID6
Aircraft A320/M-SDE3FGHIRWY/LB1

Departure

Time 2026-05-08 00:53
Airport Halifax / Stanfield International Airport (CYHZ)

Arrival

Time 2026-05-08 02:57
Airport Toronto Pearson International Airport (CYYZ)
Time Latitude Longitude Altitude Speed Heading
2026-05-08 00:30 44.88812 -63.51418 455 ft 0 kts 260°
2026-05-08 00:42 44.88813 -63.51411 455 ft 4 kts 260°
2026-05-08 00:42 44.88818 -63.51374 455 ft 4 kts 260°
2026-05-08 00:43 44.88822 -63.51336 453 ft 4 kts 260°
2026-05-08 00:43 44.88827 -63.51299 452 ft 3 kts 260°
2026-05-08 00:43 44.88828 -63.51294 452 ft 0 kts 260°
2026-05-08 00:47 44.88826 -63.51300 451 ft 3 kts 245°
2026-05-08 00:47 44.88801 -63.51300 453 ft 5 kts 152°
2026-05-08 00:47 44.88767 -63.51277 455 ft 7 kts 158°
2026-05-08 00:48 44.88695 -63.51259 455 ft 15 kts 169°
2026-05-08 00:48 44.88571 -63.51228 455 ft 20 kts 178°
2026-05-08 00:48 44.88436 -63.51202 455 ft 20 kts 167°
2026-05-08 00:48 44.88345 -63.51074 457 ft 19 kts 121°
2026-05-08 00:49 44.88319 -63.50901 459 ft 20 kts 80°
2026-05-08 00:49 44.88335 -63.50714 461 ft 19 kts 84°
2026-05-08 00:49 44.88347 -63.50545 465 ft 16 kts 83°
2026-05-08 00:49 44.88358 -63.50408 470 ft 12 kts 83°
2026-05-08 00:50 44.88366 -63.50282 469 ft 14 kts 85°
2026-05-08 00:50 44.88356 -63.50127 476 ft 18 kts 114°
2026-05-08 00:50 44.88266 -63.49955 479 ft 24 kts 127°
2026-05-08 00:50 44.88175 -63.49767 477 ft 22 kts 128°
2026-05-08 00:51 44.88122 -63.49665 483 ft 0 kts 125°
2026-05-08 00:51 44.88118 -63.49657 484 ft 4 kts 125°
2026-05-08 00:51 44.88085 -63.49551 485 ft 19 kts 97°
2026-05-08 00:52 44.88131 -63.49376 484 ft 17 kts 36°
2026-05-08 00:52 44.88199 -63.49384 480 ft 10 kts 301°
2026-05-08 00:52 44.88281 -63.49553 481 ft 45 kts 303°
2026-05-08 00:52 44.88599 -63.50188 464 ft 116 kts 305°
2026-05-08 00:53 44.89158 -63.51295 701 ft 149 kts 307°
2026-05-08 00:53 44.89751 -63.52431 1490 ft 139 kts 306°
2026-05-08 00:53 44.90365 -63.53561 2168 ft 157 kts 307°
2026-05-08 00:53 44.91086 -63.54852 2763 ft 176 kts 307°
2026-05-08 00:54 44.91882 -63.56280 3271 ft 195 kts 307°
2026-05-08 00:54 44.92726 -63.57862 3808 ft 212 kts 305°
2026-05-08 00:54 44.93599 -63.59632 4384 ft 226 kts 298°
2026-05-08 00:54 44.94367 -63.61639 4984 ft 241 kts 295°
2026-05-08 00:55 44.95138 -63.63805 5788 ft 250 kts 293°
2026-05-08 00:55 44.95896 -63.66041 6785 ft 253 kts 291°
2026-05-08 00:55 44.96644 -63.68305 7765 ft 257 kts 290°
2026-05-08 00:55 44.97402 -63.70626 8760 ft 261 kts 289°
2026-05-08 00:56 44.98168 -63.72978 9738 ft 265 kts 288°
2026-05-08 00:56 44.98939 -63.75350 10538 ft 276 kts 288°
2026-05-08 00:56 44.99764 -63.77906 11057 ft 293 kts 288°
2026-05-08 00:56 45.00630 -63.80576 11881 ft 301 kts 288°
2026-05-08 00:57 45.01518 -63.83287 12846 ft 305 kts 288°
2026-05-08 00:57 45.02418 -63.86019 13805 ft 307 kts 288°
2026-05-08 00:57 45.03314 -63.88739 14721 ft 310 kts 287°
2026-05-08 00:57 45.04226 -63.91532 15544 ft 315 kts 286°
2026-05-08 00:58 45.05149 -63.94368 16345 ft 320 kts 285°
2026-05-08 00:58 45.06080 -63.97229 17163 ft 325 kts 284°
2026-05-08 00:58 45.07034 -64.00159 17996 ft 329 kts 283°
2026-05-08 00:58 45.07999 -64.03125 18728 ft 332 kts 284°
2026-05-08 00:59 45.08968 -64.06094 19560 ft 331 kts 284°
2026-05-08 00:59 45.09923 -64.09023 20391 ft 330 kts 284°
2026-05-08 00:59 45.10885 -64.11977 21220 ft 330 kts 284°
2026-05-08 00:59 45.11846 -64.14941 22029 ft 331 kts 284°
2026-05-08 01:00 45.12704 -64.17943 22809 ft 325 kts 278°
2026-05-08 01:00 45.13291 -64.21020 23562 ft 321 kts 273°
2026-05-08 01:00 45.13737 -64.24115 24120 ft 321 kts 271°
2026-05-08 01:00 45.14116 -64.27203 24644 ft 322 kts 269°
2026-05-08 01:01 45.14464 -64.30361 25181 ft 324 kts 268°
2026-05-08 01:01 45.14797 -64.33526 25708 ft 326 kts 267°
2026-05-08 01:01 45.15129 -64.36723 26240 ft 327 kts 266°
2026-05-08 01:01 45.15465 -64.39930 26762 ft 329 kts 266°
2026-05-08 01:02 45.15801 -64.43111 27267 ft 331 kts 265°
2026-05-08 01:02 45.16147 -64.46355 27759 ft 333 kts 265°
2026-05-08 01:02 45.16497 -64.49617 28246 ft 335 kts 264°
2026-05-08 01:02 45.16849 -64.52889 28738 ft 337 kts 264°
2026-05-08 01:03 45.17199 -64.56149 29201 ft 339 kts 263°
2026-05-08 01:03 45.17554 -64.59457 29749 ft 340 kts 263°
2026-05-08 01:03 45.17911 -64.62787 30143 ft 341 kts 262°
2026-05-08 01:03 45.18266 -64.66126 30447 ft 344 kts 262°
2026-05-08 01:04 45.18622 -64.69507 30721 ft 348 kts 262°
2026-05-08 01:04 45.18979 -64.72912 31027 ft 351 kts 262°
2026-05-08 01:04 45.19340 -64.76343 31336 ft 353 kts 262°
2026-05-08 01:04 45.19701 -64.79759 31724 ft 353 kts 262°
2026-05-08 01:05 45.20068 -64.83207 32155 ft 352 kts 262°
2026-05-08 01:05 45.20432 -64.86641 32559 ft 352 kts 262°
2026-05-08 01:05 45.20794 -64.90079 32959 ft 351 kts 262°
2026-05-08 01:05 45.21148 -64.93467 33356 ft 351 kts 262°
2026-05-08 01:06 45.21505 -64.96903 33784 ft 350 kts 263°
2026-05-08 01:06 45.21858 -65.00326 34065 ft 351 kts 263°
2026-05-08 01:06 45.22210 -65.03759 34376 ft 351 kts 263°
2026-05-08 01:06 45.22562 -65.07186 34700 ft 350 kts 263°
2026-05-08 01:07 45.22909 -65.10563 35000 ft 349 kts 263°
2026-05-08 01:07 45.23257 -65.13981 35294 ft 349 kts 264°
2026-05-08 01:07 45.23603 -65.17399 35487 ft 351 kts 264°
2026-05-08 01:07 45.23949 -65.20834 35736 ft 352 kts 264°
2026-05-08 01:08 45.24297 -65.24281 36023 ft 351 kts 264°
2026-05-08 01:08 45.24644 -65.27710 36288 ft 351 kts 264°
2026-05-08 01:08 45.24990 -65.31143 36564 ft 351 kts 265°
2026-05-08 01:08 45.25333 -65.34559 36829 ft 350 kts 265°
2026-05-08 01:09 45.25677 -65.37994 37028 ft 353 kts 266°
2026-05-08 01:09 45.26360 -65.44939 37306 ft 358 kts 266°
2026-05-08 01:09 45.26706 -65.48432 37565 ft 357 kts 266°
2026-05-08 01:10 45.27053 -65.51936 37701 ft 358 kts 266°
2026-05-08 01:10 45.27744 -65.58949 37711 ft 357 kts 266°
2026-05-08 01:11 45.28424 -65.65896 37710 ft 357 kts 266°
2026-05-08 01:11 45.29101 -65.72889 37710 ft 357 kts 266°
2026-05-08 01:12 45.29769 -65.79836 37713 ft 357 kts 266°
2026-05-08 01:12 45.30437 -65.86834 37710 ft 357 kts 266°
2026-05-08 01:13 45.31101 -65.93819 37710 ft 357 kts 266°
2026-05-08 01:13 45.31758 -66.00787 37711 ft 357 kts 266°
2026-05-08 01:14 45.32414 -66.07788 37710 ft 357 kts 266°
2026-05-08 01:14 45.33063 -66.14761 37728 ft 357 kts 267°
2026-05-08 01:15 45.33707 -66.21805 37706 ft 361 kts 267°
2026-05-08 01:15 45.34357 -66.28901 37715 ft 362 kts 267°
2026-05-08 01:16 45.34999 -66.35971 37714 ft 362 kts 267°
2026-05-08 01:16 45.35646 -66.43083 37712 ft 362 kts 267°
2026-05-08 01:17 45.36288 -66.50164 37702 ft 362 kts 267°
2026-05-08 01:17 45.36927 -66.57308 37713 ft 365 kts 268°
2026-05-08 01:18 45.37561 -66.64482 37713 ft 368 kts 268°
2026-05-08 01:18 45.38337 -66.71719 37712 ft 370 kts 270°
2026-05-08 01:19 45.39215 -66.78949 37719 ft 370 kts 270°
2026-05-08 01:19 45.40089 -66.86138 37717 ft 370 kts 270°
2026-05-08 01:20 45.40947 -66.93368 37739 ft 370 kts 271°
2026-05-08 01:20 45.41789 -67.00595 37722 ft 373 kts 271°
2026-05-08 01:21 45.42493 -67.06681 37719 ft 374 kts 271°
2026-05-08 01:21 45.43339 -67.14001 37718 ft 374 kts 271°
2026-05-08 01:22 45.44174 -67.21273 37722 ft 374 kts 271°
2026-05-08 01:22 45.45009 -67.28586 37725 ft 374 kts 271°
2026-05-08 01:23 45.45839 -67.35918 37725 ft 376 kts 271°
2026-05-08 01:23 45.46672 -67.43305 37728 ft 377 kts 271°
2026-05-08 01:24 45.47498 -67.50646 37724 ft 377 kts 271°
2026-05-08 01:24 45.48329 -67.58025 37733 ft 377 kts 271°
2026-05-08 01:25 45.49165 -67.65422 37738 ft 377 kts 271°
2026-05-08 01:25 45.50006 -67.72801 37749 ft 377 kts 272°
2026-05-08 01:26 45.50840 -67.80158 37743 ft 378 kts 272°
2026-05-08 01:26 45.51674 -67.87535 37752 ft 378 kts 272°
2026-05-08 01:27 45.52506 -67.94954 37754 ft 378 kts 271°
2026-05-08 01:27 45.53327 -68.02323 37758 ft 377 kts 271°
2026-05-08 01:28 45.54147 -68.09739 37766 ft 378 kts 272°
2026-05-08 01:28 45.54959 -68.17139 37766 ft 380 kts 272°
2026-05-08 01:29 45.55776 -68.24615 37765 ft 380 kts 272°
2026-05-08 01:29 45.56582 -68.32035 37771 ft 380 kts 271°
2026-05-08 01:30 45.57388 -68.39496 37777 ft 380 kts 271°
2026-05-08 01:30 45.58189 -68.46968 37796 ft 380 kts 272°
2026-05-08 01:31 45.58880 -68.54408 37789 ft 379 kts 269°
2026-05-08 01:31 45.59277 -68.61915 37785 ft 378 kts 268°
2026-05-08 01:32 45.59603 -68.69432 37785 ft 378 kts 268°
2026-05-08 01:32 45.59942 -68.76898 37786 ft 378 kts 268°
2026-05-08 01:33 45.60299 -68.84398 37783 ft 379 kts 268°
2026-05-08 01:33 45.60659 -68.91918 37782 ft 379 kts 268°
2026-05-08 01:34 45.61015 -68.99444 37783 ft 379 kts 268°
2026-05-08 01:34 45.61363 -69.06924 37787 ft 379 kts 268°
2026-05-08 01:35 45.61709 -69.14474 37780 ft 379 kts 268°
2026-05-08 01:35 45.62049 -69.22005 37784 ft 379 kts 268°
2026-05-08 01:36 45.62381 -69.29497 37789 ft 380 kts 268°
2026-05-08 01:36 45.62708 -69.37015 37781 ft 381 kts 268°
2026-05-08 01:37 45.63036 -69.44598 37779 ft 382 kts 268°
2026-05-08 01:37 45.63359 -69.52175 37776 ft 381 kts 268°
2026-05-08 01:38 45.63675 -69.59739 37781 ft 381 kts 268°
2026-05-08 01:38 45.63984 -69.67271 37782 ft 381 kts 268°
2026-05-08 01:39 45.64290 -69.74845 37788 ft 381 kts 268°
2026-05-08 01:39 45.64592 -69.82418 37787 ft 381 kts 268°
2026-05-08 01:40 45.64888 -69.89988 37786 ft 381 kts 267°
2026-05-08 01:40 45.65177 -69.97526 37788 ft 381 kts 267°
2026-05-08 01:41 45.65463 -70.05099 37811 ft 381 kts 268°
2026-05-08 01:41 45.65743 -70.12656 37790 ft 383 kts 268°
2026-05-08 01:42 45.66021 -70.20282 37789 ft 383 kts 268°
2026-05-08 01:42 45.66294 -70.27863 37792 ft 383 kts 268°
2026-05-08 01:43 45.66562 -70.35484 37793 ft 383 kts 267°
2026-05-08 01:43 45.66824 -70.43095 37800 ft 383 kts 267°
2026-05-08 01:44 45.67080 -70.50697 37809 ft 383 kts 268°
2026-05-08 01:44 45.67330 -70.58329 37809 ft 384 kts 267°
2026-05-08 01:45 45.67558 -70.65925 37803 ft 384 kts 267°
2026-05-08 01:45 45.67797 -70.73559 37805 ft 384 kts 267°
2026-05-08 01:46 45.67878 -70.81192 37807 ft 381 kts 262°
2026-05-08 01:46 45.67493 -70.88703 37839 ft 380 kts 261°
2026-05-08 01:47 45.67009 -70.96279 37809 ft 383 kts 261°
2026-05-08 01:47 45.66505 -71.03865 37809 ft 384 kts 261°
2026-05-08 01:48 45.65754 -71.15247 37812 ft 384 kts 261°
2026-05-08 01:48 45.65253 -71.22803 37821 ft 384 kts 261°
2026-05-08 01:49 45.64745 -71.30409 37820 ft 384 kts 261°
2026-05-08 01:49 45.64228 -71.38044 37820 ft 386 kts 261°
2026-05-08 01:50 45.63710 -71.45658 37821 ft 386 kts 261°
2026-05-08 01:50 45.63187 -71.53307 37816 ft 386 kts 261°
2026-05-08 01:51 45.62659 -71.60915 37819 ft 386 kts 261°
2026-05-08 01:51 45.62123 -71.68547 37819 ft 386 kts 261°
2026-05-08 01:52 45.61583 -71.76144 37831 ft 386 kts 261°
2026-05-08 01:52 45.61034 -71.83808 37822 ft 388 kts 261°
2026-05-08 01:53 45.60491 -71.91434 37822 ft 388 kts 261°
2026-05-08 01:53 45.59935 -71.99114 37822 ft 388 kts 261°
2026-05-08 01:54 45.59371 -72.06791 37825 ft 388 kts 261°
2026-05-08 01:54 45.58799 -72.14462 37834 ft 388 kts 261°
2026-05-08 01:55 45.58226 -72.22088 37837 ft 389 kts 261°
2026-05-08 01:55 45.57641 -72.29793 37828 ft 390 kts 261°
2026-05-08 01:56 45.57189 -72.37483 37839 ft 390 kts 264°
2026-05-08 01:56 45.57032 -72.45231 37843 ft 390 kts 265°
2026-05-08 01:57 45.56926 -72.52950 37843 ft 390 kts 265°
2026-05-08 01:57 45.56789 -72.60701 37862 ft 390 kts 265°
2026-05-08 01:58 45.56625 -72.68430 37848 ft 392 kts 265°
2026-05-08 01:58 45.56448 -72.76239 37847 ft 393 kts 265°
2026-05-08 01:59 45.56266 -72.84045 37848 ft 393 kts 265°
2026-05-08 01:59 45.56080 -72.91816 37848 ft 393 kts 265°
2026-05-08 02:00 45.55881 -72.99571 37851 ft 392 kts 264°
2026-05-08 02:00 45.55677 -73.07366 37856 ft 394 kts 265°
2026-05-08 02:01 45.55474 -73.15145 37838 ft 394 kts 265°
2026-05-08 02:01 45.55267 -73.22972 37836 ft 395 kts 265°
2026-05-08 02:02 45.55055 -73.30800 37835 ft 395 kts 265°
2026-05-08 02:02 45.54843 -73.38628 37845 ft 394 kts 265°
2026-05-08 02:03 45.54627 -73.46419 37847 ft 395 kts 265°
2026-05-08 02:03 45.54400 -73.54268 37842 ft 396 kts 265°
2026-05-08 02:04 45.54167 -73.62121 37852 ft 396 kts 265°
2026-05-08 02:04 45.53926 -73.69995 37852 ft 396 kts 265°
2026-05-08 02:05 45.53680 -73.77809 37848 ft 396 kts 265°
2026-05-08 02:05 45.53425 -73.85627 37852 ft 396 kts 265°
2026-05-08 02:06 45.53166 -73.93467 37850 ft 396 kts 265°
2026-05-08 02:06 45.52905 -74.01316 37841 ft 396 kts 265°
2026-05-08 02:07 45.52684 -74.07846 37843 ft 396 kts 265°
2026-05-08 02:07 45.52413 -74.15696 37843 ft 396 kts 265°
2026-05-08 02:08 45.52137 -74.23497 37859 ft 396 kts 265°
2026-05-08 02:08 45.51855 -74.31362 37844 ft 397 kts 265°
2026-05-08 02:09 45.51566 -74.39246 37844 ft 397 kts 265°
2026-05-08 02:09 45.51123 -74.47060 37849 ft 396 kts 259°
2026-05-08 02:10 45.50160 -74.54805 37842 ft 395 kts 258°
2026-05-08 02:10 45.49103 -74.62429 37848 ft 393 kts 257°
2026-05-08 02:11 45.48021 -74.70051 37851 ft 394 kts 257°
2026-05-08 02:11 45.46931 -74.77731 37852 ft 396 kts 257°
2026-05-08 02:12 45.45841 -74.85429 37849 ft 396 kts 257°
2026-05-08 02:12 45.44747 -74.93127 37848 ft 396 kts 257°
2026-05-08 02:13 45.43656 -75.00770 37848 ft 396 kts 257°
2026-05-08 02:13 45.42547 -75.08466 37848 ft 396 kts 257°
2026-05-08 02:14 45.41433 -75.16134 37852 ft 397 kts 257°
2026-05-08 02:14 45.40303 -75.23871 37844 ft 398 kts 257°
2026-05-08 02:15 45.39178 -75.31546 37855 ft 398 kts 257°
2026-05-08 02:15 45.38040 -75.39266 37857 ft 398 kts 257°
2026-05-08 02:16 45.36905 -75.46930 37866 ft 398 kts 257°
2026-05-08 02:16 45.35758 -75.54634 37885 ft 398 kts 257°
2026-05-08 02:17 45.34595 -75.62355 37869 ft 399 kts 257°
2026-05-08 02:17 45.33426 -75.70069 37870 ft 399 kts 257°
2026-05-08 02:18 45.32264 -75.77749 37869 ft 399 kts 257°
2026-05-08 02:18 45.31093 -75.85489 37869 ft 399 kts 257°
2026-05-08 02:19 45.29924 -75.93166 37868 ft 399 kts 257°
2026-05-08 02:19 45.28745 -76.00866 37877 ft 399 kts 257°
2026-05-08 02:20 45.27561 -76.08578 37873 ft 399 kts 257°
2026-05-08 02:20 45.26369 -76.16297 37876 ft 400 kts 257°
2026-05-08 02:21 45.24652 -76.23774 37880 ft 400 kts 244°
2026-05-08 02:21 45.21431 -76.30181 37882 ft 403 kts 232°
2026-05-08 02:22 45.17752 -76.36209 37884 ft 404 kts 231°
2026-05-08 02:22 45.14064 -76.42240 37879 ft 404 kts 231°
2026-05-08 02:23 45.10414 -76.48220 37887 ft 404 kts 232°
2026-05-08 02:23 45.06734 -76.54253 37886 ft 405 kts 232°
2026-05-08 02:24 45.03045 -76.60284 37894 ft 405 kts 232°
2026-05-08 02:24 44.99373 -76.66271 37894 ft 405 kts 232°
2026-05-08 02:25 44.95677 -76.72287 37894 ft 404 kts 232°
2026-05-08 02:25 44.92002 -76.78254 37903 ft 404 kts 232°
2026-05-08 02:26 44.88309 -76.84238 37901 ft 404 kts 232°
2026-05-08 02:26 44.84608 -76.90222 37906 ft 404 kts 232°
2026-05-08 02:27 44.82760 -76.93207 37533 ft 410 kts 232°
2026-05-08 02:27 44.80970 -76.96415 36694 ft 413 kts 239°
2026-05-08 02:27 44.79491 -76.99826 36070 ft 413 kts 242°
2026-05-08 02:27 44.78065 -77.03340 35474 ft 412 kts 242°
2026-05-08 02:28 44.76652 -77.06853 34881 ft 412 kts 242°
2026-05-08 02:28 44.75232 -77.10380 34284 ft 412 kts 242°
2026-05-08 02:28 44.73831 -77.13850 33699 ft 412 kts 242°
2026-05-08 02:28 44.72417 -77.17341 33246 ft 406 kts 242°
2026-05-08 02:29 44.71026 -77.20770 32827 ft 400 kts 242°
2026-05-08 02:29 44.69665 -77.24118 32403 ft 394 kts 242°
2026-05-08 02:29 44.68311 -77.27448 31984 ft 389 kts 242°
2026-05-08 02:29 44.66972 -77.30732 31559 ft 384 kts 242°
2026-05-08 02:30 44.65654 -77.33966 31167 ft 379 kts 242°
2026-05-08 02:30 44.64351 -77.37157 30761 ft 375 kts 242°
2026-05-08 02:30 44.63058 -77.40321 30348 ft 371 kts 242°
2026-05-08 02:30 44.61774 -77.43458 29924 ft 368 kts 242°
2026-05-08 02:31 44.60502 -77.46565 29472 ft 365 kts 242°
2026-05-08 02:31 44.59253 -77.49610 29074 ft 361 kts 242°
2026-05-08 02:31 44.58006 -77.52645 28677 ft 357 kts 242°
2026-05-08 02:31 44.56769 -77.55654 28273 ft 354 kts 242°
2026-05-08 02:32 44.55543 -77.58635 27873 ft 351 kts 242°
2026-05-08 02:32 44.54331 -77.61577 27474 ft 348 kts 242°
2026-05-08 02:32 44.53122 -77.64510 27068 ft 345 kts 242°
2026-05-08 02:32 44.51939 -77.67377 26674 ft 343 kts 242°
2026-05-08 02:33 44.50744 -77.70268 26313 ft 340 kts 242°
2026-05-08 02:33 44.49559 -77.73128 25941 ft 337 kts 242°
2026-05-08 02:33 44.48383 -77.75965 25565 ft 335 kts 242°
2026-05-08 02:33 44.47228 -77.78750 25189 ft 334 kts 242°
2026-05-08 02:34 44.46064 -77.81552 24805 ft 332 kts 242°
2026-05-08 02:34 44.44901 -77.84350 24423 ft 331 kts 242°
2026-05-08 02:34 44.43744 -77.87131 24040 ft 330 kts 242°
2026-05-08 02:34 44.42587 -77.89910 23661 ft 330 kts 242°
2026-05-08 02:35 44.41434 -77.92676 23225 ft 329 kts 242°
2026-05-08 02:35 44.40278 -77.95444 22823 ft 327 kts 242°
2026-05-08 02:35 44.39136 -77.98177 22448 ft 324 kts 242°
2026-05-08 02:35 44.38005 -78.00881 22095 ft 321 kts 242°
2026-05-08 02:36 44.36893 -78.03539 21733 ft 318 kts 242°
2026-05-08 02:36 44.35778 -78.06202 21348 ft 316 kts 242°
2026-05-08 02:36 44.34667 -78.08848 20989 ft 314 kts 242°
2026-05-08 02:36 44.33566 -78.11467 20626 ft 311 kts 242°
2026-05-08 02:37 44.32472 -78.14068 20268 ft 310 kts 242°
2026-05-08 02:37 44.31384 -78.16653 19903 ft 308 kts 242°
2026-05-08 02:37 44.30316 -78.19189 19539 ft 306 kts 242°
2026-05-08 02:37 44.29231 -78.21760 19166 ft 305 kts 242°
2026-05-08 02:38 44.28155 -78.24310 18804 ft 304 kts 242°
2026-05-08 02:38 44.27080 -78.26853 18449 ft 303 kts 242°
2026-05-08 02:38 44.26010 -78.29384 18125 ft 300 kts 242°
2026-05-08 02:38 44.24968 -78.31846 17762 ft 298 kts 242°
2026-05-08 02:39 44.23905 -78.34354 17415 ft 295 kts 242°
2026-05-08 02:39 44.22874 -78.36785 17074 ft 292 kts 242°
2026-05-08 02:39 44.21839 -78.39226 16728 ft 290 kts 242°
2026-05-08 02:39 44.20814 -78.41639 16384 ft 288 kts 242°
2026-05-08 02:40 44.19803 -78.44018 16038 ft 286 kts 242°
2026-05-08 02:40 44.18789 -78.46402 15693 ft 284 kts 242°
2026-05-08 02:40 44.17780 -78.48770 15354 ft 283 kts 242°
2026-05-08 02:40 44.16789 -78.51097 15023 ft 281 kts 242°
2026-05-08 02:41 44.15792 -78.53435 14684 ft 279 kts 242°
2026-05-08 02:41 44.14799 -78.55761 14351 ft 278 kts 242°
2026-05-08 02:41 44.13812 -78.58073 14017 ft 276 kts 242°
2026-05-08 02:41 44.12829 -78.60373 13684 ft 275 kts 242°
2026-05-08 02:42 44.11862 -78.62632 13349 ft 273 kts 242°
2026-05-08 02:42 44.10894 -78.64892 13038 ft 270 kts 242°
2026-05-08 02:42 44.09938 -78.67121 12739 ft 267 kts 242°
2026-05-08 02:42 44.08988 -78.69338 12407 ft 265 kts 242°
2026-05-08 02:43 44.08047 -78.71530 12095 ft 263 kts 242°
2026-05-08 02:43 44.07123 -78.73681 11780 ft 261 kts 242°
2026-05-08 02:43 44.06191 -78.75849 11456 ft 260 kts 242°
2026-05-08 02:43 44.05265 -78.78004 11136 ft 258 kts 242°
2026-05-08 02:44 44.04313 -78.80116 10827 ft 258 kts 237°
2026-05-08 02:44 44.03187 -78.82020 10546 ft 258 kts 232°
2026-05-08 02:44 44.01979 -78.83859 10237 ft 257 kts 231°
2026-05-08 02:44 44.00764 -78.85677 9951 ft 255 kts 231°
2026-05-08 02:45 43.99572 -78.87455 9761 ft 249 kts 231°
2026-05-08 02:45 43.98398 -78.89210 9456 ft 247 kts 231°
2026-05-08 02:45 43.97236 -78.90950 9166 ft 244 kts 231°
2026-05-08 02:45 43.96100 -78.92651 8888 ft 242 kts 231°
2026-05-08 02:46 43.94956 -78.94366 8617 ft 242 kts 231°
2026-05-08 02:46 43.93813 -78.96077 8339 ft 241 kts 231°
2026-05-08 02:46 43.92672 -78.97785 8064 ft 240 kts 230°
2026-05-08 02:46 43.91545 -78.99470 7786 ft 240 kts 230°
2026-05-08 02:47 43.90413 -79.01163 7516 ft 239 kts 230°
2026-05-08 02:47 43.89282 -79.02853 7227 ft 239 kts 230°
2026-05-08 02:47 43.88160 -79.04582 7012 ft 245 kts 234°
2026-05-08 02:47 43.87292 -79.06665 6758 ft 253 kts 252°
2026-05-08 02:48 43.87020 -79.09036 6509 ft 252 kts 269°
2026-05-08 02:48 43.87043 -79.11470 6265 ft 252 kts 272°
2026-05-08 02:48 43.87117 -79.13899 6027 ft 251 kts 272°
2026-05-08 02:48 43.87190 -79.16321 5798 ft 251 kts 272°
2026-05-08 02:49 43.87258 -79.18749 5569 ft 252 kts 272°
2026-05-08 02:49 43.87320 -79.21147 5343 ft 252 kts 272°
2026-05-08 02:49 43.87380 -79.23604 5105 ft 252 kts 272°
2026-05-08 02:49 43.87436 -79.26000 4876 ft 252 kts 272°
2026-05-08 02:50 43.87456 -79.28431 4642 ft 252 kts 263°
2026-05-08 02:50 43.86935 -79.30738 4426 ft 251 kts 244°
2026-05-08 02:50 43.86008 -79.32733 4259 ft 241 kts 232°
2026-05-08 02:50 43.84906 -79.34422 4113 ft 231 kts 227°
2026-05-08 02:51 43.83823 -79.35976 4002 ft 215 kts 227°
2026-05-08 02:51 43.82825 -79.37416 3877 ft 200 kts 227°
2026-05-08 02:51 43.81903 -79.38754 3716 ft 188 kts 228°
2026-05-08 02:51 43.81008 -79.40062 3586 ft 183 kts 228°
2026-05-08 02:52 43.80134 -79.41344 3472 ft 183 kts 228°
2026-05-08 02:52 43.79272 -79.42610 3396 ft 182 kts 227°
2026-05-08 02:52 43.78404 -79.43879 3317 ft 174 kts 228°
2026-05-08 02:52 43.77625 -79.45014 3230 ft 154 kts 228°
2026-05-08 02:53 43.76877 -79.46106 3229 ft 157 kts 228°
2026-05-08 02:53 43.76378 -79.46834 3195 ft 155 kts 229°
2026-05-08 02:53 43.75444 -79.48194 2966 ft 142 kts 228°
2026-05-08 02:53 43.74772 -79.49174 2785 ft 136 kts 228°
2026-05-08 02:54 43.74144 -79.50089 2571 ft 128 kts 229°
2026-05-08 02:54 43.73538 -79.50971 2397 ft 126 kts 230°
2026-05-08 02:54 43.72935 -79.51851 2219 ft 126 kts 229°
2026-05-08 02:54 43.72535 -79.52432 2102 ft 126 kts 229°
2026-05-08 02:55 43.71931 -79.53312 1928 ft 126 kts 229°
2026-05-08 02:55 43.70713 -79.55085 1572 ft 128 kts 228°
2026-05-08 02:55 43.70111 -79.55981 1370 ft 127 kts 228°
2026-05-08 02:56 43.69503 -79.56846 1182 ft 125 kts 227°
2026-05-08 02:56 43.68907 -79.57711 1009 ft 123 kts 226°
2026-05-08 02:56 43.68327 -79.58560 837 ft 123 kts 226°
2026-05-08 02:56 43.67740 -79.59418 677 ft 122 kts 226°
2026-05-08 02:57 43.67167 -79.60253 570 ft 113 kts 226°
2026-05-08 02:57 43.66711 -79.60910 569 ft 70 kts 226°
2026-05-08 02:57 43.66467 -79.61281 564 ft 40 kts 238°
2026-05-08 02:57 43.66382 -79.61578 564 ft 20 kts 250°
2026-05-08 02:58 43.66413 -79.61738 569 ft 17 kts 315°
2026-05-08 02:58 43.66496 -79.61850 563 ft 18 kts 315°
2026-05-08 02:58 43.66600 -79.61942 568 ft 17 kts 14°
2026-05-08 02:58 43.66683 -79.61831 566 ft 17 kts 45°
2026-05-08 02:59 43.66766 -79.61707 568 ft 20 kts 46°
2026-05-08 02:59 43.66885 -79.61534 566 ft 28 kts 45°
2026-05-08 02:59 43.67018 -79.61343 573 ft 28 kts 47°
2026-05-08 02:59 43.67147 -79.61159 570 ft 18 kts 38°
2026-05-08 03:00 43.67248 -79.61226 568 ft 19 kts 317°
2026-05-08 03:00 43.67345 -79.61350 565 ft 19 kts 316°
2026-05-08 03:00 43.67444 -79.61479 566 ft 20 kts 317°
2026-05-08 03:00 43.67545 -79.61608 566 ft 21 kts 317°
2026-05-08 03:01 43.67652 -79.61751 566 ft 22 kts 315°
2026-05-08 03:01 43.67765 -79.61899 568 ft 23 kts 317°
2026-05-08 03:01 43.67890 -79.62045 571 ft 24 kts 338°
2026-05-08 03:01 43.67993 -79.61999 567 ft 13 kts 21°
2026-05-08 03:02 43.68071 -79.61944 570 ft 13 kts 46°
2026-05-08 03:02 43.68137 -79.61851 574 ft 14 kts 45°
2026-05-08 03:02 43.68173 -79.61764 569 ft 0 kts 98°
2026-05-08 03:03 43.68172 -79.61758 568 ft 2 kts 103°
2026-05-08 03:04 43.68149 -79.61732 570 ft 6 kts 170°
2026-05-08 03:04 43.68106 -79.61733 569 ft 6 kts 165°
2026-05-08 03:04 43.68079 -79.61698 566 ft 4 kts 131°
2026-05-08 03:04 43.68063 -79.61677 565 ft 2 kts 136°
2026-05-08 03:05 43.68055 -79.61667 565 ft 0 kts 136°